User: anonymous   Login
Location: *
(44.3683°N, 6.6958°E)
Time: 05:39:34
(UTC+00:00)
Language:

STARLINK-53 - Orbit

View from above orbital plane
View from above orbital plane
View from above satellite
View from above satellite

Ground track
Ground track

The orbit data is extracted from the following two-line orbital elements,

1 44294U 19029BM  19346.91667824  .00436390  00000-0  23619-1 0  9997
2 44294  52.9990 340.4709 0001217  84.1940  30.9998 15.12036631 31788
Epoch (UTC): 12 December 2019 22:00:01
Eccentricity: 0.0001217
inclination: 52.9990°
perigee height: 529 km
apogee height: 531 km
right ascension of ascending node: 340.4709°
argument of perigee: 84.1940°
revolutions per day: 15.12036631
mean anomaly at epoch: 30.9998°
orbit number at epoch: 3178

The dashed part of the orbit path shows where the satellite is in the earth's shadow,  

DLR